{"data":{"norad_id":57828,"epoch":"2026-09-20T13:35:48.852960Z","epoch_age_seconds":128829,"freshness":"FRESH","line1":"1 57828U 23138W   26263.56653765  .00000083  00000+0  12527-4 0  9990","line2":"2 57828  43.0026 213.4726 0001118 270.8070  89.2654 15.27581576168474","mean_motion":15.27581576,"eccentricity":0.0001118,"inclination_deg":43.0026,"raan_deg":213.4726,"arg_perigee_deg":270.807,"mean_anomaly_deg":89.2654,"bstar":1.2527e-5,"rev_number":16847,"period_min":94.266651459012,"perigee_km":482.27729685481,"apogee_km":483.81145701069,"semimajor_km":6861.1813769327,"source":"CELESTRAK","updated_at":"2026-09-21T09:00:33.710880Z"}}